Saginaw Browne, MI

8:05 AM EDT on May 20, 2018 (GMT -0400)
Saginaw County-Browne

Weather History for KHYX - May, 2014

Change the Weather History Date:

Friday, May 9, 2014

  Actual Average (WUND) Record (WUND)
Temperature  
Mean Temperature 70 °F -  
Max Temperature 77 °F - - (-1)
Min Temperature 60 °F - - (-1)
Cooling Degree Days 4    
Growing Degree Days 20 (Base 50)    
Moisture  
Dew Point 56 °F    
Average Humidity 58    
Maximum Humidity 78    
Minimum Humidity 41    
Precipitation  
Precipitation 0.00 in - - ()
Sea Level Pressure  
Sea Level Pressure 29.73 in    
Wind  
Wind Speed 14 mph (SW)    
Max Wind Speed 28 mph    
Max Gust Speed 43 mph    
Visibility 10 miles    
Events Rain    
Averages and records for this station are not official NWS values.
T = Trace of Precipitation, MM = Missing Value Source: NWS Daily Summary

Daily Weather History Graph

Daily Weather History Graph

Search for Another Location

Airport or City:

Astronomy

May. 09, 2014 Rise Set
Actual Time 6:17 AM EDT 8:46 PM EDT
Civil Twilight 5:45 AM EDT 9:18 PM EDT
Nautical Twilight 5:05 AM EDT 9:59 PM EDT
Astronomical Twilight 4:20 AM EDT 10:44 PM EDT
Moon 3:34 PM EDT (5/9) 3:29 AM EDT (5/9)
Length of Visible Light 15h 33m
Length of Day
14h 28m
Waxing Gibbous, 73% of the Moon is Illuminated
May 9
Waxing Gibbous
May 14
Full
May 21
Last Quarter
May 28
New
Jun 5
First Quarter

Hourly Weather History & Observations

Time (EDT) Temp. Dew Point Humidity Pressure Visibility Wind Dir Wind Speed Gust Speed Precip Events Conditions
12:15 AM 73.4 °F 60.8 °F 65% 29.84 in 10.0 mi South 9.2 mph - N/A   Clear
12:35 AM 73.4 °F 60.8 °F 65% 29.83 in 10.0 mi South 11.5 mph - N/A   Clear
12:55 AM 73.4 °F 59.0 °F 61% 29.83 in 10.0 mi South 9.2 mph - N/A   Clear
1:15 AM 77.0 °F 57.2 °F 50% 29.82 in 10.0 mi SSW 15.0 mph 20.7 mph N/A   Clear
1:35 AM 75.2 °F 57.2 °F 53% 29.82 in 10.0 mi SSW 13.8 mph - N/A   Clear
1:55 AM 75.2 °F 57.2 °F 53% 29.82 in 10.0 mi SSW 13.8 mph 19.6 mph N/A   Clear
2:15 AM 73.4 °F 57.2 °F 57% 29.81 in 10.0 mi SSW 15.0 mph - N/A   Clear
2:35 AM 73.4 °F 57.2 °F 57% 29.81 in 10.0 mi SSW 13.8 mph - N/A   Clear
2:55 AM 73.4 °F 57.2 °F 57% 29.80 in 10.0 mi SSW 13.8 mph - N/A   Clear
3:15 AM 73.4 °F 57.2 °F 57% 29.80 in 10.0 mi SSW 12.7 mph - N/A   Clear
3:35 AM 73.4 °F 57.2 °F 57% 29.80 in 10.0 mi South 11.5 mph - N/A   Clear
3:55 AM 71.6 °F 57.2 °F 60% 29.79 in 10.0 mi South 12.7 mph - N/A   Clear
4:15 AM 71.6 °F 57.2 °F 60% 29.79 in 10.0 mi South 12.7 mph - N/A   Clear
4:34 AM 71.6 °F 57.2 °F 60% 29.79 in 10.0 mi South 10.4 mph - N/A   Clear
5:15 AM 69.8 °F 57.2 °F 64% 29.79 in 10.0 mi South 10.4 mph - N/A   Clear
5:34 AM 69.8 °F 57.2 °F 64% 29.78 in 10.0 mi South 10.4 mph - N/A   Scattered Clouds
5:55 AM 71.6 °F 57.2 °F 60% 29.79 in 10.0 mi South 12.7 mph - N/A   Mostly Cloudy
6:15 AM 69.8 °F 57.2 °F 64% 29.79 in 10.0 mi South 11.5 mph - N/A   Overcast
6:34 AM 69.8 °F 59.0 °F 68% 29.78 in 10.0 mi South 11.5 mph - N/A   Overcast
6:55 AM 71.6 °F 59.0 °F 64% 29.79 in 10.0 mi South 11.5 mph - N/A   Mostly Cloudy
7:15 AM 71.6 °F 59.0 °F 64% 29.77 in 10.0 mi SSW 11.5 mph - N/A   Scattered Clouds
7:35 AM 71.6 °F 59.0 °F 64% 29.79 in 10.0 mi SSW 16.1 mph 19.6 mph N/A   Scattered Clouds
7:55 AM 71.6 °F 59.0 °F 64% 29.79 in 10.0 mi SW 13.8 mph 17.3 mph N/A   Clear
8:15 AM 69.8 °F 59.0 °F 68% 29.79 in 10.0 mi WSW 11.5 mph - N/A   Clear
8:35 AM 69.8 °F 59.0 °F 68% 29.78 in 10.0 mi SW 8.1 mph - N/A   Clear
8:55 AM 69.8 °F 59.0 °F 68% 29.80 in 10.0 mi SSW 15.0 mph - N/A   Clear
9:15 AM 69.8 °F 59.0 °F 68% 29.79 in 10.0 mi SW 12.7 mph - N/A   Scattered Clouds
9:35 AM 69.8 °F 59.0 °F 68% 29.76 in 10.0 mi SW 3.5 mph 9.2 mph N/A Rain Light Rain
9:55 AM 69.8 °F 59.0 °F 68% 29.79 in 10.0 mi SSW 11.5 mph - N/A   Mostly Cloudy
10:15 AM 71.6 °F 59.0 °F 64% 29.79 in 10.0 mi SSW 18.4 mph 21.9 mph N/A   Scattered Clouds
10:35 AM 71.6 °F 59.0 °F 64% 29.78 in 10.0 mi SSW 19.6 mph 23.0 mph N/A   Mostly Cloudy
10:55 AM 73.4 °F 59.0 °F 61% 29.75 in 10.0 mi SSW 16.1 mph - N/A   Scattered Clouds
11:14 AM 73.4 °F 59.0 °F 61% 29.76 in 10.0 mi South 20.7 mph 25.3 mph N/A   Clear
11:35 AM 73.4 °F 59.0 °F 61% 29.73 in 10.0 mi SSW 17.3 mph 24.2 mph N/A   Clear
11:55 AM 75.2 °F 57.2 °F 53% 29.74 in 10.0 mi South 23.0 mph 28.8 mph N/A   Scattered Clouds
12:14 PM 73.4 °F 57.2 °F 57% 29.74 in 10.0 mi SSW 20.7 mph 31.1 mph N/A   Mostly Cloudy
12:35 PM 73.4 °F 57.2 °F 57% 29.73 in 10.0 mi SSW 19.6 mph 27.6 mph N/A   Mostly Cloudy
12:55 PM 71.6 °F 59.0 °F 64% 29.72 in 10.0 mi SSW 16.1 mph 24.2 mph N/A Rain Rain
1:15 PM 69.8 °F 60.8 °F 73% 29.73 in 5.0 mi SSW 19.6 mph 29.9 mph N/A Rain Light Rain
1:35 PM 69.8 °F 62.6 °F 78% 29.72 in 10.0 mi South 15.0 mph 20.7 mph N/A   Light Drizzle
1:55 PM 71.6 °F 60.8 °F 69% 29.70 in 10.0 mi South 13.8 mph 24.2 mph N/A   Overcast
2:15 PM 71.6 °F 60.8 °F 69% 29.69 in 10.0 mi SSW 20.7 mph 27.6 mph N/A   Mostly Cloudy
2:35 PM 73.4 °F 59.0 °F 61% 29.67 in 10.0 mi SSW 24.2 mph 31.1 mph N/A   Mostly Cloudy
2:55 PM 73.4 °F 55.4 °F 53% 29.66 in 10.0 mi SW 26.5 mph 33.4 mph N/A   Mostly Cloudy
3:15 PM 77.0 °F 53.6 °F 44% 29.66 in 10.0 mi SW 26.5 mph 34.5 mph N/A   Mostly Cloudy
3:35 PM 75.2 °F 51.8 °F 44% 29.66 in 10.0 mi SW 27.6 mph 41.4 mph N/A   Mostly Cloudy
3:55 PM 75.2 °F 51.8 °F 44% 29.66 in 10.0 mi SW 27.6 mph 42.6 mph N/A   Mostly Cloudy
4:15 PM 77.0 °F 51.8 °F 41% 29.65 in 10.0 mi SW 25.3 mph 33.4 mph N/A   Scattered Clouds
4:35 PM 75.2 °F 51.8 °F 44% 29.65 in 10.0 mi SW 26.5 mph 32.2 mph N/A   Scattered Clouds
4:55 PM 75.2 °F 53.6 °F 47% 29.65 in 10.0 mi SW 21.9 mph 33.4 mph N/A   Scattered Clouds
5:15 PM 75.2 °F 53.6 °F 47% 29.64 in 10.0 mi SW 20.7 mph 33.4 mph N/A   Scattered Clouds
5:35 PM 75.2 °F 55.4 °F 50% 29.64 in 10.0 mi SW 18.4 mph 25.3 mph N/A   Scattered Clouds
5:55 PM 75.2 °F 53.6 °F 47% 29.64 in 10.0 mi SW 17.3 mph 27.6 mph N/A   Scattered Clouds
6:15 PM 73.4 °F 55.4 °F 53% 29.65 in 10.0 mi SSW 20.7 mph 24.2 mph N/A   Scattered Clouds
6:35 PM 73.4 °F 55.4 °F 53% 29.65 in 10.0 mi SW 15.0 mph - N/A   Scattered Clouds
6:54 PM 75.2 °F 55.4 °F 50% 29.64 in 10.0 mi SW 19.6 mph 25.3 mph N/A   Scattered Clouds
7:15 PM 75.2 °F 53.6 °F 47% 29.63 in 10.0 mi SW 17.3 mph 26.5 mph N/A   Scattered Clouds
7:35 PM 73.4 °F 53.6 °F 50% 29.63 in 10.0 mi SW 16.1 mph 25.3 mph N/A   Scattered Clouds
7:54 PM 73.4 °F 53.6 °F 50% 29.64 in 10.0 mi SW 15.0 mph 23.0 mph N/A   Scattered Clouds
8:15 PM 73.4 °F 55.4 °F 53% 29.64 in 10.0 mi SW 17.3 mph 21.9 mph N/A   Scattered Clouds
8:35 PM 73.4 °F 53.6 °F 50% 29.64 in 10.0 mi SW 11.5 mph - N/A   Mostly Cloudy
8:54 PM 71.6 °F 53.6 °F 53% 29.66 in 10.0 mi West 13.8 mph 21.9 mph N/A   Scattered Clouds
9:15 PM 69.8 °F 51.8 °F 53% 29.66 in 10.0 mi West 18.4 mph 32.2 mph N/A   Clear
9:35 PM 69.8 °F 51.8 °F 53% 29.68 in 10.0 mi West 15.0 mph - N/A   Clear
9:55 PM 68.0 °F 50.0 °F 52% 29.70 in 10.0 mi WSW 11.5 mph - N/A   Clear
10:15 PM 68.0 °F 48.2 °F 49% 29.71 in 10.0 mi WSW 16.1 mph 21.9 mph N/A   Clear
10:35 PM 64.4 °F 46.4 °F 52% 29.72 in 10.0 mi WSW 15.0 mph 20.7 mph N/A   Clear
10:55 PM 64.4 °F 46.4 °F 52% 29.74 in 10.0 mi WSW 15.0 mph 21.9 mph N/A   Clear
11:15 PM 64.4 °F 46.4 °F 52% 29.75 in 10.0 mi WSW 17.3 mph 21.9 mph N/A   Clear
11:35 PM 62.6 °F 46.4 °F 55% 29.75 in 10.0 mi West 16.1 mph 20.7 mph N/A   Clear
11:55 PM 60.8 °F 46.4 °F 59% 29.76 in 10.0 mi WSW 9.2 mph 18.4 mph N/A   Clear